When you browse on this site, cookies collect data to enhance your experience and personalize the content and advertising you see.
Visit our Privacy Policy to learn more. By continuing to use the site, you agree to this use of cookies and data.
  • în România
  • Lista ţărilor
  • Pe 7 zile
  • Temperatura apei
  • Hartă satelitară
  • Meteo pe hartă
  • Widget-uri
  • user-avatar
    Intrare

    Meteo pe oră la Maturín

    Astăzi, 22 Februarie, Vineri

    Timp Temperatura Precipitaţii Vânt Presiune Umiditate
    00:00 +24°C° 0 mm 2 m/s 757 mmHg 85%
    01:00 +23°C° 0 mm 1 m/s 757 mmHg 88%
    02:00 +22°C° 0 mm 1 m/s 757 mmHg 92%
    03:00 +22°C° 0 mm 1 m/s 757 mmHg 93%
    04:00 +22°C° 0 mm 1 m/s 757 mmHg 95%
    05:00 +22°C° 0 mm 1 m/s 757 mmHg 96%
    06:00 +23°C° 0 mm 1 m/s 757 mmHg 91%
    07:00 +25°C° 0 mm 1 m/s 758 mmHg 86%
    08:00 +26°C° 0 mm 1 m/s 758 mmHg 81%
    09:00 +28°C° 0.1 mm 2 m/s 758 mmHg 70%
    10:00 +30°C° 0.1 mm 3 m/s 758 mmHg 60%
    11:00 +33°C° 0.1 mm 4 m/s 759 mmHg 49%
    12:00 +34°C° 0 mm 4 m/s 758 mmHg 48%
    13:00 +34°C° 0 mm 4 m/s 757 mmHg 47%
    14:00 +34°C° 0 mm 4 m/s 757 mmHg 46%
    15:00 +34°C° 0 mm 4 m/s 756 mmHg 47%
    16:00 +33°C° 0 mm 4 m/s 756 mmHg 49%
    17:00 +33°C° 0 mm 4 m/s 756 mmHg 50%
    18:00 +30°C° 0 mm 4 m/s 756 mmHg 58%
    19:00 +28°C° 0 mm 4 m/s 756 mmHg 66%
    20:00 +27°C° 0 mm 3 m/s 757 mmHg 75%
    21:00 +26°C° 0 mm 3 m/s 757 mmHg 79%
    22:00 +25°C° 0 mm 2 m/s 758 mmHg 83%
    23:00 +24°C° 0 mm 2 m/s 758 mmHg 87%

    Mâine, 23 Februarie, Sâmbătă

    Timp Temperatura Precipitaţii Vânt Presiune Umiditate
    00:00 +24°C° 0 mm 2 m/s 758 mmHg 90%
    01:00 +23°C° 0 mm 2 m/s 758 mmHg 92%
    02:00 +22°C° 0 mm 1 m/s 758 mmHg 95%
    03:00 +22°C° 0 mm 1 m/s 758 mmHg 96%
    04:00 +22°C° 0 mm 1 m/s 757 mmHg 96%
    05:00 +22°C° 0 mm 1 m/s 757 mmHg 97%
    06:00 +23°C° 0 mm 1 m/s 757 mmHg 90%
    07:00 +25°C° 0 mm 2 m/s 758 mmHg 84%
    08:00 +26°C° 0 mm 2 m/s 758 mmHg 77%
    09:00 +28°C° 0 mm 3 m/s 758 mmHg 65%
    10:00 +31°C° 0 mm 3 m/s 759 mmHg 52%
    11:00 +35°C° 0 mm 4 m/s 759 mmHg 39%
    12:00 +36°C° 0 mm 4 m/s 758 mmHg 36%
    13:00 +36°C° 0 mm 4 m/s 757 mmHg 34%
    14:00 +37°C° 0 mm 5 m/s 756 mmHg 31%
    15:00 +36°C° 0 mm 5 m/s 755 mmHg 34%
    16:00 +36°C° 0 mm 5 m/s 755 mmHg 37%
    17:00 +35°C° 0 mm 5 m/s 755 mmHg 40%
    18:00 +32°C° 0 mm 5 m/s 755 mmHg 51%
    19:00 +29°C° 0 mm 4 m/s 755 mmHg 62%
    20:00 +27°C° 0 mm 3 m/s 756 mmHg 73%
    21:00 +26°C° 0 mm 3 m/s 756 mmHg 78%
    22:00 +25°C° 0 mm 3 m/s 757 mmHg 82%
    23:00 +25°C° 0 mm 2 m/s 757 mmHg 87%

    Poimâine, 24 Februarie, Duminică

    Timp Temperatura Precipitaţii Vânt Presiune Umiditate
    00:00 +24°C° 0.1 mm 2 m/s 757 mmHg 89%
    01:00 +23°C° 0.1 mm 2 m/s 757 mmHg 92%
    02:00 +23°C° 0.1 mm 2 m/s 757 mmHg 94%
    03:00 +23°C° 0 mm 2 m/s 756 mmHg 95%
    04:00 +21°C° 0 mm 2 m/s 756 mmHg 95%
    05:00 +21°C° 0 mm 2 m/s 756 mmHg 96%
    06:00 +23°C° 0 mm 2 m/s 757 mmHg 90%
    07:00 +24°C° 0 mm 2 m/s 757 mmHg 84%
    08:00 +26°C° 0 mm 2 m/s 758 mmHg 78%
    09:00 +28°C° 0 mm 3 m/s 758 mmHg 65%
    10:00 +32°C° 0 mm 4 m/s 758 mmHg 52%
    11:00 +35°C° 0 mm 4 m/s 759 mmHg 39%
    12:00 +35°C° 0 mm 4 m/s 757 mmHg 40%
    13:00 +35°C° 0 mm 4 m/s 756 mmHg 40%
    14:00 +35°C° 0 mm 4 m/s 755 mmHg 40%
    15:00 +35°C° 0 mm 5 m/s 755 mmHg 42%
    16:00 +35°C° 0 mm 5 m/s 754 mmHg 44%
    17:00 +34°C° 0 mm 5 m/s 754 mmHg 46%
    18:00 +32°C° 0 mm 5 m/s 754 mmHg 55%
    19:00 +29°C° 0 mm 4 m/s 755 mmHg 65%
    20:00 +27°C° 0 mm 4 m/s 756 mmHg 74%
    21:00 +26°C° 0.1 mm 3 m/s 756 mmHg 80%
    22:00 +25°C° 0.1 mm 3 m/s 756 mmHg 85%
    23:00 +25°C° 0.1 mm 2 m/s 757 mmHg 91%

    25 Februarie, Luni

    Timp Temperatura Precipitaţii Vânt Presiune Umiditate
    00:00 +24°C° 0.2 mm 2 m/s 756 mmHg 93%
    01:00 +24°C° 0.2 mm 2 m/s 756 mmHg 94%
    02:00 +24°C° 0.2 mm 2 m/s 755 mmHg 96%
    03:00 +23°C° 0.3 mm 2 m/s 755 mmHg 97%
    04:00 +23°C° 0.3 mm 2 m/s 755 mmHg 97%
    05:00 +23°C° 0.3 mm 1 m/s 756 mmHg 97%
    06:00 +24°C° 0.2 mm 2 m/s 756 mmHg 93%
    07:00 +25°C° 0.2 mm 2 m/s 757 mmHg 90%
    08:00 +26°C° 0.2 mm 2 m/s 757 mmHg 86%
    09:00 +27°C° 0.4 mm 3 m/s 758 mmHg 79%
    10:00 +29°C° 0.4 mm 3 m/s 758 mmHg 72%
    11:00 +30°C° 0.4 mm 3 m/s 758 mmHg 65%
    12:00 +32°C° 0.1 mm 4 m/s 757 mmHg 59%
    13:00 +34°C° 0.1 mm 4 m/s 756 mmHg 52%
    14:00 +35°C° 0.1 mm 4 m/s 755 mmHg 46%
    15:00 +34°C° 0.1 mm 4 m/s 755 mmHg 48%
    16:00 +33°C° 0.1 mm 4 m/s 755 mmHg 51%
    17:00 +33°C° 0.1 mm 3 m/s 754 mmHg 54%
    18:00 +30°C° 0 mm 3 m/s 755 mmHg 60%
    19:00 +28°C° 0 mm 3 m/s 755 mmHg 67%
    20:00 +27°C° 0 mm 3 m/s 756 mmHg 74%
    21:00 +26°C° 0 mm 3 m/s 756 mmHg 78%
    22:00 +25°C° 0 mm 2 m/s 757 mmHg 82%
    23:00 +25°C° 0 mm 2 m/s 757 mmHg 87%

    26 Februarie, Marţi

    Timp Temperatura Precipitaţii Vânt Presiune Umiditate
    00:00 +24°C° 0 mm 2 m/s 757 mmHg 90%
    01:00 +23°C° 0 mm 2 m/s 756 mmHg 93%
    02:00 +23°C° 0 mm 1 m/s 756 mmHg 96%
    03:00 +23°C° 0 mm 1 m/s 756 mmHg 96%
    04:00 +23°C° 0 mm 1 m/s 756 mmHg 97%
    05:00 +23°C° 0 mm 1 m/s 756 mmHg 97%
    06:00 +24°C° 0 mm 2 m/s 757 mmHg 91%
    07:00 +25°C° 0 mm 2 m/s 758 mmHg 85%
    08:00 +26°C° 0 mm 2 m/s 758 mmHg 79%
    09:00 +29°C° 0 mm 3 m/s 758 mmHg 66%
    10:00 +31°C° 0 mm 3 m/s 758 mmHg 54%
    11:00 +34°C° 0 mm 3 m/s 758 mmHg 41%
    12:00 +36°C° 0 mm 3 m/s 757 mmHg 37%
    13:00 +37°C° 0 mm 4 m/s 756 mmHg 33%
    14:00 +38°C° 0 mm 4 m/s 755 mmHg 28%
    15:00 +37°C° 0 mm 4 m/s 755 mmHg 32%
    16:00 +35°C° 0 mm 4 m/s 754 mmHg 37%
    17:00 +34°C° 0 mm 5 m/s 754 mmHg 41%
    18:00 +32°C° 0 mm 4 m/s 755 mmHg 48%
    19:00 +30°C° 0 mm 4 m/s 756 mmHg 55%
    20:00 +28°C° 0 mm 3 m/s 756 mmHg 62%
    21:00 +27°C° 0 mm 3 m/s 757 mmHg 69%
    22:00 +26°C° 0 mm 2 m/s 757 mmHg 75%
    23:00 +25°C° 0 mm 2 m/s 758 mmHg 82%

    27 Februarie, Miercuri

    Timp Temperatura Precipitaţii Vânt Presiune Umiditate
    00:00 +25°C° 0.1 mm 2 m/s 757 mmHg 86%
    01:00 +24°C° 0.1 mm 1 m/s 757 mmHg 91%
    02:00 +24°C° 0.1 mm 1 m/s 757 mmHg 95%
    03:00 +23°C° 0 mm 1 m/s 757 mmHg 95%
    04:00 +23°C° 0 mm 1 m/s 757 mmHg 96%
    05:00 +23°C° 0 mm 1 m/s 756 mmHg 97%
    06:00 +24°C° 0.1 mm 2 m/s 757 mmHg 93%
    07:00 +25°C° 0.1 mm 2 m/s 757 mmHg 89%
    08:00 +26°C° 0.1 mm 2 m/s 758 mmHg 85%
    09:00 +28°C° 0.1 mm 3 m/s 758 mmHg 73%
    10:00 +30°C° 0.1 mm 3 m/s 758 mmHg 62%
    11:00 +34°C° 0.1 mm 4 m/s 758 mmHg 51%
    12:00 +34°C° 0 mm 4 m/s 757 mmHg 49%
    13:00 +34°C° 0 mm 4 m/s 756 mmHg 47%
    14:00 +35°C° 0 mm 4 m/s 755 mmHg 45%
    15:00 +34°C° 0 mm 4 m/s 755 mmHg 45%
    16:00 +34°C° 0 mm 4 m/s 755 mmHg 46%
    17:00 +33°C° 0 mm 4 m/s 755 mmHg 47%
    18:00 +32°C° 0 mm 4 m/s 755 mmHg 52%
    19:00 +30°C° 0 mm 4 m/s 756 mmHg 57%
    20:00 +28°C° 0 mm 3 m/s 756 mmHg 61%
    21:00 +27°C° 0 mm 3 m/s 757 mmHg 68%
    22:00 +26°C° 0 mm 3 m/s 757 mmHg 75%
    23:00 +25°C° 0 mm 2 m/s 757 mmHg 82%
    Arată mai mult